FW3872 Weather Reports


Display with metric or nautical units.
time (UTC)temp
F
wind
direction
speed
MPH
gust
MPH
rain 1hr
in
rain 24hr
in
rain mn
in
humidity
%
barometer
mb
20260503224030 75 152 1.0 6.0 0.00 0.00 0.00 47 1017.3
20260503223527 75 155 1.0 5.0 0.00 0.00 0.00 46 1017.4
20260503223045 75 209 1.0 5.0 0.00 0.00 0.00 49 1017.4
20260503222527 75 203 1.0 6.0 0.00 0.00 0.00 49 1017.3
20260503222027 75 211 2.0 6.0 0.00 0.00 0.00 50 1017.3
20260503221547 75 96 2.0 7.0 0.00 0.00 0.00 52 1017.3
20260503221029 75 111 2.0 7.0 0.00 0.00 0.00 48 1017.4
20260503220530 75 111 3.0 7.0 0.00 0.00 0.00 49 1017.4
20260503220046 75 227 2.0 5.0 0.00 0.00 0.00 50 1017.4
20260503215529 75 130 2.0 5.0 0.00 0.00 0.00 50 1017.5
20260503215028 76 144 2.0 5.0 0.00 0.00 0.00 50 1017.5
20260503214540 76 117 2.0 6.0 0.00 0.00 0.00 47 1017.5
20260503214027 75 217 3.0 6.0 0.00 0.00 0.00 48 1017.6
20260503213530 75 176 2.0 11.0 0.00 0.00 0.00 47 1017.5
20260503213044 75 251 3.0 11.0 0.00 0.00 0.00 49 1017.6
20260503212525 75 255 3.0 7.0 0.00 0.00 0.00 50 1017.7
20260503212026 75 194 2.0 6.0 0.00 0.00 0.00 49 1017.7
20260503211552 75 101 1.0 6.0 0.00 0.00 0.00 49 1017.8
20260503211027 75 99 2.0 9.0 0.00 0.00 0.00 48 1017.8
20260503210532 76 170 3.0 9.0 0.00 0.00 0.00 48 1018.0
20260503210046 76 107 2.0 6.0 0.00 0.00 0.00 48 1018.0
20260503205528 76 232 2.0 6.0 0.00 0.00 0.00 47 1018.1
20260503205029 75 157 2.0 6.0 0.00 0.00 0.00 48 1018.1
20260503204552 75 167 2.0 6.0 0.00 0.00 0.00 46 1018.2
20260503204031 75 161 2.0 8.0 0.00 0.00 0.00 45 1018.3
20260503203525 75 198 3.0 8.0 0.00 0.00 0.00 44 1018.4
20260503203045 75 221 4.0 8.0 0.00 0.00 0.00 45 1018.4
20260503202525 75 175 3.0 8.0 0.00 0.00 0.00 44 1018.5
20260503202026 75 175 3.0 10.0 0.00 0.00 0.00 44 1018.5
20260503201540 75 170 5.0 10.0 0.00 0.00 0.00 44 1018.6
20260503201025 75 159 3.0 8.0 0.00 0.00 0.00 44 1018.6
20260503200526 75 172 3.0 8.0 0.00 0.00 0.00 43 1018.6
20260503200041 75 143 3.0 12.0 0.00 0.00 0.00 41 1018.8
20260503195527 75 167 4.0 12.0 0.00 0.00 0.00 41 1018.8
20260503195025 75 214 3.0 12.0 0.00 0.00 0.00 44 1019.0
20260503194547 76 234 3.0 12.0 0.00 0.00 0.00 42 1019.1
20260503194026 76 175 3.0 6.0 0.00 0.00 0.00 40 1019.2
20260503193527 76 233 2.0 5.0 0.00 0.00 0.00 36 1019.3
20260503193052 75 271 2.0 8.0 0.00 0.00 0.00 39 1019.4
20260503192523 75 316 3.0 8.0 0.00 0.00 0.00 35 1019.5
20260503192025 76 75 3.0 6.0 0.00 0.00 0.00 35 1019.6
20260503191544 76 11 2.0 6.0 0.00 0.00 0.00 38 1019.7
20260503191026 75 69 2.0 7.0 0.00 0.00 0.00 36 1019.7
20260503190525 75 61 2.0 7.0 0.00 0.00 0.00 35 1019.8
20260503190049 75 49 2.0 7.0 0.00 0.00 0.00 36 1020.0
20260503185525 75 360 3.0 8.0 0.00 0.00 0.00 36 1020.0
20260503185025 75 294 3.0 9.0 0.00 0.00 0.00 36 1020.1
20260503184540 75 221 4.0 9.0 0.00 0.00 0.00 39 1020.0
20260503184023 75 300 2.0 10.0 0.00 0.00 0.00 37 1020.1
20260503183524 74 294 4.0 10.0 0.00 0.00 0.00 35 1020.3
20260503183056 74 82 4.0 10.0 0.00 0.00 0.00 37 1020.3
20260503182525 74 340 4.0 11.0 0.00 0.00 0.00 36 1020.3
20260503182025 74 33 4.0 11.0 0.00 0.00 0.00 36 1020.5
20260503181540 74 299 3.0 8.0 0.00 0.00 0.00 35 1020.4
20260503181025 74 40 3.0 8.0 0.00 0.00 0.00 39 1020.5
20260503180528 74 0 3.0 8.0 0.00 0.00 0.00 38 1020.5
20260503180051 74 33 3.0 13.0 0.00 0.00 0.00 38 1020.5
20260503175525 74 326 5.0 13.0 0.00 0.00 0.00 37 1020.5
20260503175026 73 279 6.0 13.0 0.00 0.00 0.00 36 1020.5
20260503174540 74 319 4.0 10.0 0.00 0.00 0.00 36 1020.6
20260503174025 73 10 3.0 8.0 0.00 0.00 0.00 36 1020.6
20260503173526 73 80 3.0 9.0 0.00 0.00 0.00 35 1020.7
20260503173113 73 290 3.0 9.0 0.00 0.00 0.00 39 1020.7
20260503172525 73 45 3.0 10.0 0.00 0.00 0.00 38 1020.7
20260503172026 73 17 3.0 10.0 0.00 0.00 0.00 39 1020.7
20260503171549 73 298 3.0 10.0 0.00 0.00 0.00 38 1020.8
20260503171026 73 23 3.0 11.0 0.00 0.00 0.00 38 1020.9
20260503170526 73 296 3.0 12.0 0.00 0.00 0.00 39 1021.0
20260503150525 70 52 2.0 8.0 0.00 0.00 0.00 52 1021.7
20260503131029 61 352 2.0 4.0 0.00 0.00 0.00 68 1021.0
20260503130528 60 10 1.0 4.0 0.00 0.00 0.00 68 1021.1
20260503110525 53 0 0.0 1.0 0.00 0.05 0.00 86 1020.0
20260503081545 54 0 0.0 2.0 0.00 0.58 0.00 79 1019.3
20260503081026 55 0 0.0 2.0 0.00 0.58 0.00 78 1019.2
20260503080526 55 9 0.0 1.0 0.00 0.58 0.00 78 1019.1
20260503072526 57 0 1.0 3.0 0.00 0.87 0.00 74 1018.7
20260503072025 57 0 0.0 3.0 0.00 0.87 0.00 75 1018.5
20260503071547 57 9 0.0 3.0 0.00 0.87 0.00 75 1018.7
20260503071025 57 0 1.0 3.0 0.00 0.87 0.00 75 1018.8
20260503070523 57 9 1.0 3.0 0.00 0.87 0.00 75 1018.8
20260503055026 59 320 0.0 7.0 0.00 1.27 0.00 74 1018.6
20260503054543 58 277 1.0 5.0 0.00 1.27 0.00 75 1018.5
20260503054026 58 106 0.0 3.0 0.00 1.27 0.00 77 1018.5
20260503053526 57 0 0.0 4.0 0.00 1.27 0.00 79 1018.5
20260503053037 56 326 1.0 4.0 0.00 1.27 0.00 80 1018.5
20260503052529 56 329 0.0 2.0 0.00 1.27 0.00 80 1018.5
20260503052025 56 0 0.0 3.0 0.00 1.27 0.00 80 1018.5
20260503051538 56 329 0.0 3.0 0.00 1.27 0.00 79 1018.4
20260503051026 57 0 0.0 2.0 0.00 1.27 0.00 78 1018.4
20260503050528 57 0 0.0 2.0 0.00 1.27 0.00 77 1018.5
20260503050042 57 0 0.0 3.0 0.00 1.27 0.00 77 1018.5
20260503045532 57 282 0.0 5.0 0.00 1.27 1.27 77 1018.3
20260503045028 57 312 0.0 5.0 0.00 1.27 1.27 77 1018.3
20260503044539 57 315 2.0 5.0 0.00 1.27 1.27 77 1018.3
20260503044027 57 281 1.0 2.0 0.00 1.27 1.27 77 1018.2
20260503043528 58 0 0.0 2.0 0.00 1.27 1.27 76 1018.2
20260503043039 58 281 0.0 2.0 0.00 1.27 1.27 76 1018.3
20260503042527 59 281 0.0 3.0 0.00 1.27 1.27 75 1018.2
20260503042030 59 281 1.0 3.0 0.00 1.27 1.27 74 1018.1
20260503041546 59 281 1.0 2.0 0.00 1.27 1.27 73 1018.1
20260503041030 59 281 1.0 2.0 0.00 1.27 1.27 73 1018.0
20260503040531 60 319 1.0 2.0 0.00 1.27 1.27 72 1018.0
20260503040043 60 319 0.0 2.0 0.00 1.27 1.27 71 1017.9
20260503035528 61 319 1.0 2.0 0.00 1.39 1.27 71 1018.0
20260503035028 61 319 1.0 4.0 0.00 1.39 1.27 70 1017.9
20260503034541 62 319 1.0 4.0 0.00 1.39 1.27 69 1017.9
20260503034030 62 319 2.0 5.0 0.00 1.39 1.27 68 1017.9
20260503033527 62 270 1.0 5.0 0.00 1.39 1.27 68 1017.9
20260503033045 62 0 1.0 5.0 0.00 1.39 1.27 67 1017.8
20260503032527 62 317 1.0 4.0 0.00 1.39 1.27 67 1017.8
20260503032027 62 317 1.0 4.0 0.00 1.39 1.27 68 1017.8
20260503031540 62 0 0.0 5.0 0.00 1.39 1.27 69 1017.8
20260503031027 62 294 0.0 5.0 0.00 1.39 1.27 68 1017.7
20260503030529 62 302 2.0 5.0 0.00 1.39 1.27 67 1017.6
20260503030047 62 350 1.0 3.0 0.00 1.39 1.27 67 1017.5
20260503025528 62 19 1.0 3.0 0.00 1.54 1.27 66 1017.5
20260503025028 63 325 1.0 4.0 0.00 1.54 1.27 63 1017.4
20260503024545 63 355 0.0 4.0 0.00 1.54 1.27 62 1017.5
20260503024028 63 346 1.0 4.0 0.00 1.54 1.27 62 1017.4
20260503023527 63 0 1.0 4.0 0.00 1.54 1.27 63 1017.4
20260503023041 63 9 1.0 4.0 0.00 1.54 1.27 63 1017.3
20260503022527 63 0 0.0 3.0 0.00 1.54 1.27 62 1017.2
20260503022026 63 329 0.0 3.0 0.00 1.54 1.27 61 1017.2
20260503021548 63 0 1.0 3.0 0.00 1.54 1.27 61 1017.2
20260503021027 64 355 0.0 3.0 0.00 1.54 1.27 61 1017.2
20260503020527 64 0 1.0 3.0 0.00 1.54 1.27 60 1017.1
20260503020049 64 13 1.0 3.0 0.00 1.54 1.27 59 1017.0
20260503015528 64 17 1.0 4.0 0.00 1.98 1.27 59 1016.9
20260503015027 64 27 1.0 4.0 0.00 1.98 1.27 57 1016.8
20260503014606 65 0 1.0 4.0 0.00 1.98 1.27 58 1016.7
20260503014026 65 344 2.0 6.0 0.00 1.98 1.27 56 1016.6
20260503013525 65 19 2.0 6.0 0.00 1.98 1.27 56 1016.6
20260503013041 65 5 2.0 6.0 0.00 1.98 1.27 55 1016.5
20260503012526 65 310 2.0 8.0 0.00 1.98 1.27 55 1016.5
20260503012026 66 39 2.0 8.0 0.00 1.98 1.27 55 1016.4
20260503011548 66 350 2.0 6.0 0.00 1.98 1.27 55 1016.3
20260503011025 66 31 2.0 6.0 0.00 1.98 1.27 54 1016.1
20260503010523 66 47 1.0 9.0 0.00 1.98 1.27 55 1015.9
20260503010050 67 302 2.0 11.0 0.00 1.98 1.27 54 1015.9
20260503005526 67 298 3.0 11.0 0.00 2.00 1.27 52 1015.8
20260503005026 67 281 2.0 6.0 0.00 2.00 1.27 52 1015.6
20260503004555 67 338 2.0 6.0 0.00 2.00 1.27 52 1015.5
20260503004025 67 38 2.0 10.0 0.00 2.00 1.27 51 1015.5
20260503003528 68 355 4.0 11.0 0.00 2.00 1.27 50 1015.4
20260503003043 68 35 3.0 11.0 0.00 2.00 1.27 49 1015.3
20260503002526 68 22 5.0 11.0 0.00 2.00 1.27 49 1015.1
20260503002025 68 299 4.0 11.0 0.00 2.00 1.27 48 1015.1
20260503001541 69 360 3.0 12.0 0.00 2.00 1.27 49 1015.0
20260503001027 69 341 4.0 12.0 0.00 2.00 1.27 49 1014.9
20260503000526 69 64 5.0 11.0 0.00 2.00 1.27 51 1014.7
20260503000042 70 333 2.0 10.0 0.00 2.00 1.27 54 1014.6
20260502235526 70 40 4.0 11.0 0.00 2.29 1.27 54 1014.5
20260502235025 70 28 4.0 11.0 0.00 2.29 1.27 52 1014.4
20260502234544 70 296 5.0 11.0 0.00 2.29 1.27 53 1014.3
20260502234027 71 295 6.0 11.0 0.00 2.29 1.27 52 1014.1
20260502233526 71 299 3.0 11.0 0.00 2.29 1.27 53 1013.9
20260502233044 71 333 4.0 11.0 0.00 2.29 1.27 52 1013.9
20260502232527 71 306 4.0 13.0 0.00 2.29 1.27 53 1013.8
20260502232027 71 65 4.0 13.0 0.00 2.29 1.27 52 1013.8
20260502231545 71 360 4.0 13.0 0.00 2.29 1.27 52 1013.8
20260502231026 71 35 6.0 13.0 0.00 2.29 1.27 51 1013.8
20260502230528 72 16 5.0 12.0 0.00 2.29 1.27 52 1013.7
20260502230047 72 310 5.0 13.0 0.00 2.29 1.27 52 1013.7
20260502225525 72 5 3.0 13.0 0.00 2.31 1.27 54 1013.7
20260502225104 72 352 5.0 13.0 0.00 2.31 1.27 53 1013.7
20260502224540 72 55 4.0 11.0 0.00 2.31 1.27 51 1013.7